FW3968 Weather Reports


time (UTC)temp
C
wind
direction
speed
KPH
gust
KPH
rain 1hr
cm
rain 24hr
cm
rain mn
cm
humidity
%
barometer
mb
20260502205603 8 184 0.0 1.6 0.00 0.00 0.00 71 1013.4
20260502204605 8 166 1.6 3.2 0.00 0.00 0.00 73 1013.4
20260502203604 8 146 1.6 3.2 0.00 0.00 0.00 76 1013.3
20260502201604 8 191 0.0 3.2 0.00 0.00 0.00 78 1013.6
20260502200603 7 232 3.2 6.4 0.00 0.00 0.00 80 1013.6
20260502195603 7 135 0.0 0.0 0.00 0.00 0.00 80 1013.7
20260502194603 7 171 0.0 0.0 0.00 0.00 0.00 82 1013.9
20260502193604 7 135 0.0 0.0 0.00 0.00 0.00 82 1013.8
20260502191606 7 45 0.0 0.0 0.00 0.00 0.00 81 1013.8
20260502190703 7 45 0.0 0.0 0.00 0.00 0.00 82 1013.8
20260502185705 6 45 0.0 1.6 0.00 0.00 0.00 82 1014.0
20260502183802 6 45 0.0 0.0 0.00 0.00 0.00 79 1014.0
20260502181903 6 137 0.0 1.6 0.00 0.00 0.00 80 1014.2
20260502180904 6 135 0.0 0.0 0.00 0.00 0.00 80 1014.2
20260502170104 7 135 0.0 0.0 0.00 0.00 0.00 75 1014.7
20260502164105 7 172 0.0 3.2 0.00 0.00 0.00 72 1014.8
20260502162205 7 174 0.0 1.6 0.00 0.00 0.00 69 1015.0
20260502161203 7 45 0.0 0.0 0.00 0.00 0.00 70 1015.0
20260502160204 7 337 0.0 0.0 0.00 0.00 0.00 71 1015.2
20260502151402 7 326 3.2 4.8 0.00 0.00 0.00 68 1015.8
20260502150403 7 15 4.8 6.4 0.00 0.00 0.00 67 1015.6
20260502122705 5 22 3.2 4.8 0.00 0.00 0.00 85 1015.2
20260502121704 5 22 0.0 0.0 0.00 0.00 0.00 91 1015.3
20260502120801 3 22 0.0 0.0 0.00 0.00 0.00 92 1015.1
20260502114802 3 43 1.6 1.6 0.00 0.00 0.00 95 1014.8
20260502113804 3 22 0.0 0.0 0.00 0.00 0.00 95 1014.7
20260502112904 3 22 0.0 0.0 0.00 0.00 0.00 96 1014.5
20260502111906 3 22 0.0 0.0 0.00 0.00 0.00 96 1014.5
20260502111002 3 22 0.0 0.0 0.00 0.00 0.00 96 1014.6
20260502105004 2 22 0.0 0.0 0.00 0.00 0.00 95 1014.4
20260502103105 1 180 0.0 0.0 0.00 0.00 0.00 96 1014.1
20260502102119 1 180 0.0 0.0 0.00 0.00 0.00 95 1014.3
20260502101204 1 180 0.0 0.0 0.00 0.00 0.00 95 1014.3
20260502100203 1 135 1.6 1.6 0.00 0.00 0.00 95 1014.3
20260502090305 0 135 3.2 4.8 0.00 0.00 0.00 94 1013.8
20260502070613 1 133 0.0 1.6 0.00 0.00 0.00 92 1013.0
20260502065712 1 45 3.2 4.8 0.00 0.00 0.00 91 1012.8
20260502064731 1 135 0.0 0.0 0.00 0.00 0.00 90 1013.2
20260502063712 1 135 0.0 0.0 0.00 0.00 0.00 90 1013.1
20260502062714 1 135 0.0 0.0 0.00 0.00 0.00 89 1013.1
20260502061813 1 135 0.0 0.0 0.00 0.00 0.00 87 1013.3
20260502055911 1 135 1.6 1.6 0.00 0.00 0.00 86 1013.2
20260502054912 1 112 0.0 1.6 0.00 0.00 0.00 86 1012.9
20260502054011 1 112 0.0 0.0 0.00 0.00 0.00 86 1013.0
20260502053012 1 112 0.0 0.0 0.00 0.00 0.00 85 1013.0
20260502052014 1 112 0.0 0.0 0.00 0.00 0.00 85 1012.9
20260502051013 1 112 0.0 1.6 0.00 0.00 0.00 85 1012.8
20260502050012 1 112 0.0 0.0 0.00 0.00 0.00 83 1012.9
20260502045014 2 112 0.0 0.0 0.00 0.00 0.00 82 1012.5
20260502043013 2 112 0.0 0.0 0.00 0.00 0.00 80 1012.6
20260502042012 2 112 0.0 0.0 0.00 0.00 0.00 79 1012.4
20260502041013 2 112 0.0 0.0 0.00 0.00 0.00 77 1012.4
20260502035124 2 112 0.0 0.0 0.00 0.00 0.00 73 1012.5
20260502034124 3 112 0.0 0.0 0.00 0.00 0.00 73 1012.5
20260502033125 3 112 0.0 0.0 0.00 0.00 0.00 70 1012.5
20260502032125 3 112 0.0 0.0 0.00 0.00 0.00 70 1012.4
20260502031126 4 112 0.0 0.0 0.00 0.00 0.00 67 1012.5
20260502025225 5 337 0.0 0.0 0.00 0.00 0.00 63 1012.5
20260502024226 6 360 0.0 0.0 0.00 0.00 0.00 62 1012.3
20260502023229 6 353 3.2 4.8 0.00 0.00 0.00 61 1012.5
20260502022326 6 12 3.2 6.4 0.00 0.00 0.00 61 1012.5
20260502021327 6 358 3.2 4.8 0.00 0.00 0.00 60 1012.5
20260502020425 6 11 4.8 6.4 0.00 0.00 0.00 59 1012.5
20260502015428 6 329 6.4 9.7 0.00 0.00 0.00 59 1012.5
20260502014523 7 333 3.2 4.8 0.00 0.00 0.00 58 1012.5
20260502010526 7 340 9.7 14.5 0.00 0.00 0.00 56 1012.0
20260502005625 8 341 8.0 12.9 0.00 0.00 0.00 56 1011.9
20260502004626 8 357 8.0 12.9 0.00 0.00 0.00 54 1011.6
20260502002626 8 353 11.3 20.9 0.00 0.00 0.00 53 1011.1
20260502001624 9 341 4.8 9.7 0.00 0.00 0.00 53 1010.7
20260502000624 9 355 8.0 12.9 0.00 0.00 0.00 52 1010.5
20260501235624 9 2 8.0 16.1 0.00 0.00 0.00 51 1010.4
20260501234625 10 6 4.8 8.0 0.00 0.00 0.00 51 1010.0
20260501233627 10 346 6.4 9.7 0.00 0.00 0.00 49 1009.9
20260501232723 10 353 8.0 14.5 0.00 0.00 0.00 49 1009.6
20260501231726 10 360 9.7 14.5 0.00 0.00 0.00 50 1009.4
20260501230726 11 357 9.7 14.5 0.00 0.00 0.00 50 1009.2
20260501225824 11 348 6.4 9.7 0.00 0.00 0.00 50 1009.1
20260501224826 11 353 12.9 24.1 0.00 0.00 0.00 50 1009.0
20260501223827 11 340 8.0 16.1 0.00 0.00 0.00 48 1008.8
20260501222923 12 345 12.9 17.7 0.00 0.00 0.00 49 1008.6
20260501220924 12 348 11.3 17.7 0.00 0.00 0.00 47 1008.3
20260501215940 12 3 11.3 20.9 0.00 0.00 0.00 49 1008.2
20260501215026 13 355 4.8 6.4 0.00 0.00 0.00 48 1008.1
20260501214026 13 337 8.0 14.5 0.00 0.00 0.00 48 1008.0
20260501213025 13 341 8.0 11.3 0.00 0.00 0.00 46 1008.0
20260501212123 13 341 4.8 9.7 0.00 0.00 0.00 48 1007.9
20260501211125 13 336 11.3 19.3 0.00 0.00 0.00 46 1007.8